Temperature
-1 -0 -1 -1 -1 -1 -1 -1 -1 -0 -0 -1 -2 -3 -3 -3 -3 -3 -3 -3 -3 -2 -2 -2 -2 -2 -1 -1 -1 -1 -1 -1 -1 -1 -1 -1 -1 -1 -1 -2 -2 -2 -2 -2
-1 -1 -1 -1 -1 -2 -2 -2 -2 -1 -1 -3 -3 -3 -4 -4 -4 -4 -4 -4 -4 -3 -3 -3 -2 -2 -2 -2 -2 -2 -2 -2 -2 -2 -2 -2 -2 -2 -2 -2 -2 -2 -3 -3
-2 -2 -2 -2 -2 -2 -2 -3 -3 -2 -3 -4 -5 -5 -5 -5 -5 -5 -5 -5 -4 -4 -4 -3 -3 -3 -3 -3 -2 -2 -2 -2 -2 -2 -2 -2 -2 -2 -3 -3 -3 -3 -3 -3
-3 -2 -2 -2 -3 -3 -3 -4 -5 -4 -5 -5 -5 -6 -5 -5 -5 -5 -5 -5 -5 -4 -4 -4 -4 -4 -3 -3 -3 -3 -3 -3 -3 -3 -3 -3 -3 -3 -3 -3 -3 -4 -4 -4
-3 -3 -3 -3 -4 -5 -5 -4 -6 -6 -6 -6 -6 -6 -6 -6 -6 -6 -6 -5 -5 -5 -5 -5 -4 -4 -4 -4 -4 -4 -4 -4 -4 -4 -4 -4 -4 -4 -4 -4 -4 -4 -5 -5
-4 -3 -2 -3 -5 -5 -5 -4 -6 -7 -7 -7 -7 -6 -6 -6 -6 -6 -6 -6 -6 -6 -6 -5 -5 -5 -5 -5 -5 -5 -5 -4 -4 -4 -5 -5 -5 -5 -5 -5 -5 -5 -5 -5
-4 -4 -4 -6 -6 -5 -4 -4 -7 -7 -7 -8 -8 -7 -7 -7 -7 -7 -7 -7 -6 -6 -6 -6 -6 -6 -5 -5 -5 -5 -5 -5 -5 -5 -5 -5 -5 -6 -6 -6 -6 -6 -6 -6
-5 -5 -4 -7 -7 -6 -6 -7 -7 -7 -7 -8 -8 -8 -8 -8 -8 -8 -7 -7 -7 -7 -7 -7 -7 -7 -6 -6 -6 -6 -6 -6 -6 -6 -6 -6 -6 -6 -6 -7 -7 -7 -7 -7
-6 -6 -7 -7 -7 -7 -7 -7 -8 -8 -8 -8 -8 -8 -9 -9 -9 -8 -8 -8 -8 -8 -8 -8 -8 -7 -7 -7 -7 -7 -7 -7 -7 -7 -7 -7 -7 -7 -7 -7 -7 -8 -8 -8
-8 -8 -8 -8 -8 -7 -8 -8 -8 -8 -8 -8 -9 -9 -9 -9 -9 -9 -9 -9 -8 -8 -8 -8 -8 -8 -8 -8 -8 -8 -8 -7 -8 -8 -8 -8 -8 -8 -8 -8 -8 -8 -8 -8
-9 -9 -9 -8 -8 -8 -8 -8 -9 -9 -9 -9 -9 -9 -9 -10 -10 -9 -9 -9 -9 -9 -9 -9 -9 -9 -9 -9 -8 -8 -8 -8 -8 -8 -8 -8 -8 -9 -9 -9 -9 -9 -9 -9
-8 -9 -9 -9 -8 -8 -9 -9 -9 -9 -9 -9 -9 -9 -10 -10 -10 -10 -10 -10 -10 -9 -9 -9 -9 -9 -9 -9 -9 -9 -9 -9 -9 -9 -9 -9 -9 -9 -10 -9 -9 -10 -10 -10
-8 -8 -9 -9 -9 -9 -9 -9 -9 -10 -10 -10 -10 -10 -10 -10 -10 -10 -10 -10 -10 -10 -10 -10 -10 -10 -10 -10 -9 -9 -9 -10 -10 -10 -10 -10 -10 -10 -10 -10 -10 -10 -10 -10
-9 -9 -10 -10 -10 -10 -10 -10 -10 -10 -10 -10 -10 -10 -11 -11 -11 -11 -11 -11 -11 -10 -10 -10 -10 -10 -10 -10 -10 -10 -10 -10 -10 -10 -10 -10 -10 -11 -11 -11 -11 -11 -10 -11
-9 -9 -10 -10 -10 -10 -10 -10 -10 -10 -11 -11 -11 -11 -11 -11 -11 -11 -11 -11 -11 -11 -11 -11 -11 -11 -11 -11 -11 -11 -11 -11 -11 -11 -11 -11 -11 -11 -11 -11 -11 -11 -11 -11
-10 -10 -10 -10 -10 -11 -11 -11 -11 -11 -11 -11 -11 -12 -12 -12 -12 -12 -12 -12 -12 -12 -12 -12 -11 -12 -12 -12 -11 -11 -11 -11 -12 -11 -11 -12 -12 -12 -12 -12 -12 -12 -12 -12
-11 -11 -11 -11 -11 -11 -11 -11 -11 -11 -12 -12 -12 -12 -12 -12 -12 -12 -12 -12 -12 -12 -12 -12 -12 -12 -12 -12 -12 -12 -12 -12 -12 -12 -12 -12 -12 -12 -12 -12 -12 -12 -12 -12
-10 -10 -11 -11 -11 -11 -11 -11 -12 -12 -12 -12 -12 -12 -12 -12 -13 -13 -13 -13 -13 -13 -13 -13 -13 -13 -12 -12 -12 -12 -12 -12 -12 -12 -13 -13 -13 -13 -13 -13 -13 -13 -13 -12
-10 -11 -11 -11 -11 -11 -12 -12 -12 -12 -12 -13 -13 -13 -13 -13 -13 -13 -13 -13 -13 -13 -13 -13 -13 -13 -13 -13 -13 -13 -13 -13 -13 -13 -13 -13 -13 -13 -13 -13 -13 -13 -13 -13
-11 -11 -11 -11 -11 -12 -12 -12 -12 -12 -13 -13 -13 -13 -13 -13 -13 -13 -13 -13 -13 -14 -13 -13 -13 -13 -13 -13 -13 -13 -13 -13 -13 -13 -13 -13 -13 -14 -14 -14 -14 -14 -13 -13
-11 -11 -11 -12 -12 -12 -12 -12 -13 -13 -13 -13 -13 -13 -13 -13 -13 -14 -14 -13 -13 -14 -14 -14 -14 -14 -14 -14 -14 -14 -14 -14 -14 -14 -14 -14 -14 -14 -14 -14 -14 -14 -14 -14
-11 -12 -12 -12 -12 -12 -13 -13 -13 -13 -13 -13 -13 -13 -13 -13 -14 -14 -14 -14 -14 -14 -14 -14 -14 -14 -14 -14 -14 -14 -14 -14 -14 -14 -14 -14 -14 -14 -14 -14 -14 -14 -14 -14
-12 -12 -12 -12 -13 -13 -13 -13 -13 -13 -13 -14 -14 -14 -14 -14 -14 -14 -14 -14 -14 -14 -14 -14 -14 -14 -15 -14 -14 -14 -14 -14 -15 -15 -15 -15 -15 -15 -15 -14 -14 -14 -14 -14
-12 -12 -13 -13 -13 -13 -13 -14 -14 -14 -14 -14 -14 -14 -14 -14 -14 -14 -15 -15 -15 -15 -15 -15 -15 -15 -15 -15 -15 -15 -15 -15 -15 -15 -15 -15 -15 -15 -15 -15 -15 -15 -15 -15
-13 -13 -13 -13 -13 -14 -14 -14 -14 -14 -14 -14 -14 -15 -15 -15 -15 -15 -15 -15 -15 -15 -15 -15 -15 -15 -15 -15 -15 -15 -15 -15 -15 -15 -16 -16 -15 -15 -15 -15 -15 -15 -15 -15
-13 -13 -14 -14 -14 -14 -14 -14 -14 -14 -15 -15 -15 -15 -15 -15 -15 -15 -15 -15 -15 -15 -15 -15 -15 -15 -16 -16 -16 -16 -16 -16 -16 -16 -16 -16 -16 -16 -16 -16 -16 -15 -15 -15
-14 -14 -14 -14 -14 -15 -15 -15 -15 -15 -15 -15 -15 -15 -15 -15 -15 -16 -16 -16 -16 -16 -16 -16 -16 -16 -16 -16 -16 -16 -16 -16 -16 -16 -16 -16 -16 -16 -16 -16 -16 -16 -16 -16
Wind_Speed
6 4 3 5 7 5 6 6 7 8 8 8 6 6 5 3 2 3 3 3 2 2 2 2 2 1 0 1 2 3 4 5 4 4 4 4 4 4 3 3 3 4 4 4
3 2 2 5 7 7 7 6 8 10 10 4 4 4 4 4 2 2 2 3 4 3 2 2 2 2 1 0 1 3 4 4 4 4 4 4 4 4 3 3 3 3 3 4
3 2 3 6 6 5 3 4 5 8 6 5 5 5 5 4 3 2 3 3 4 4 2 2 2 1 1 0 1 2 3 3 4 4 4 4 4 4 4 3 3 3 3 3
1 2 4 5 1 1 3 3 2 3 4 4 4 4 5 3 3 4 4 4 4 4 4 3 3 2 2 2 2 2 2 3 3 4 4 3 4 3 3 3 3 3 3 3
2 2 6 4 2 2 2 4 2 4 5 5 4 4 3 5 5 4 4 4 3 3 3 3 3 3 2 2 2 2 1 1 2 3 3 3 3 3 3 3 2 2 2 3
2 2 5 4 3 4 0 4 3 4 4 4 4 2 4 5 6 6 5 4 3 3 4 4 4 3 3 2 2 2 1 1 1 2 3 3 3 3 2 3 2 2 1 2
3 4 6 3 4 1 1 5 5 3 3 2 2 3 4 4 5 5 5 4 4 4 4 4 4 4 3 3 2 2 2 2 1 1 2 3 3 2 3 2 2 2 2 1
2 3 6 2 2 2 3 4 3 3 3 3 3 3 3 3 4 4 5 5 5 4 4 4 4 4 4 3 3 3 2 2 2 1 1 2 3 2 2 3 3 2 2 1
5 5 2 1 2 2 2 3 3 3 4 2 2 3 3 3 3 4 4 4 4 4 4 5 5 4 3 3 3 2 3 2 2 2 1 1 2 2 2 3 2 2 2 2
3 5 4 3 2 3 2 2 3 3 3 2 2 2 2 2 3 3 4 4 4 4 4 5 5 4 3 3 3 2 2 2 1 1 1 1 1 2 2 2 2 2 2 2
4 4 4 3 2 3 3 3 3 3 3 1 1 2 1 2 2 3 4 4 3 3 3 4 4 4 4 3 2 2 2 1 1 1 1 1 1 1 1 2 3 3 3 3
5 4 3 4 3 2 2 3 3 3 3 3 1 1 1 1 2 2 3 3 3 3 3 3 4 4 4 3 2 1 1 1 1 0 0 1 1 1 2 1 1 1 2 2
4 2 2 3 3 2 1 2 2 2 2 3 2 1 1 1 2 2 2 3 3 3 3 3 3 4 4 3 2 1 1 1 1 0 0 0 0 1 1 2 2 2 1 2
1 0 1 2 2 2 2 2 2 2 2 2 1 1 1 2 2 2 2 3 3 3 2 2 3 4 4 3 2 2 1 1 1 0 0 0 0 0 0 0 1 1 2 3
1 1 2 2 1 2 2 2 2 3 3 3 2 2 2 2 2 2 3 3 3 3 3 3 3 4 4 2 2 2 1 1 1 0 0 0 0 0 0 0 0 1 2 2
1 1 0 0 1 2 2 2 1 2 2 2 2 2 2 2 2 2 3 3 2 3 4 3 4 4 3 2 2 2 1 2 2 1 0 0 0 0 0 0 1 1 1 2
1 1 1 2 2 2 2 2 1 1 1 1 2 2 2 2 2 3 3 3 2 3 4 4 4 4 3 3 2 1 1 2 2 1 1 0 0 1 1 1 1 2 2 3
2 2 2 2 2 2 2 2 2 1 1 2 1 1 1 1 2 3 4 4 3 4 4 4 4 3 3 3 2 1 1 1 1 1 1 1 1 1 1 1 2 2 2 3
0 0 0 1 1 1 1 1 2 1 1 1 1 1 1 1 2 2 3 3 3 4 5 5 6 4 4 4 3 1 1 1 1 1 1 2 2 1 1 2 2 2 3 2
1 1 1 2 2 1 1 1 1 1 1 1 1 1 2 2 2 2 2 2 3 3 4 5 4 4 3 4 3 1 1 1 1 2 1 1 2 2 2 2 2 3 3 3
1 1 1 2 2 2 1 1 1 1 1 1 0 1 2 2 2 2 2 3 4 4 4 6 4 3 3 3 3 1 1 1 2 2 2 2 2 2 2 2 3 3 3 3
1 1 1 1 1 2 2 2 1 1 1 1 1 1 2 2 3 2 2 3 4 7 4 3 3 5 5 4 1 1 1 2 2 2 2 2 2 3 3 3 3 3 3 3
0 0 1 1 1 1 2 2 2 1 1 1 2 2 2 2 2 2 4 3 3 6 5 3 5 7 7 3 2 2 2 2 3 3 3 3 3 3 3 3 3 3 3 3
1 1 1 1 1 2 2 2 2 1 1 2 2 2 2 2 3 2 3 6 8 7 4 6 9 9 7 3 2 3 3 3 3 3 3 3 3 3 3 4 4 4 4 4
1 1 1 1 1 1 2 2 2 2 2 2 3 3 2 2 3 3 3 4 7 7 4 7 9 9 5 3 3 3 3 3 3 3 3 3 3 4 4 4 4 4 4 5
1 1 1 1 1 1 1 1 2 2 2 3 3 3 3 2 3 3 3 3 5 6 5 4 5 6 4 4 4 4 4 5 5 4 4 4 4 4 4 4 5 5 5 5
1 1 1 1 2 1 1 1 2 2 2 3 3 3 3 3 3 3 4 4 4 4 4 4 4 4 4 4 4 4 4 4 4 4 4 4 4 4 5 5 5 6 6 6
Wind_Direction
258 266 247 266 275 253 226 228 235 260 270 286 305 306 307 319 346 12 13 11 18 27 10 16 21 20 37 178 169 166 166 171 177 171 164 161 161 161 164 172 175 175 180 179
273 258 267 278 278 255 249 251 253 269 276 311 328 349 341 333 337 349 356 358 355 358 2 4 1 1 9 117 153 154 163 169 159 155 154 159 163 161 162 167 169 171 173 177
272 313 333 280 255 224 226 232 229 254 279 332 330 335 323 314 318 336 357 354 349 344 341 341 333 344 352 21 130 138 152 152 156 159 160 163 164 162 168 172 169 175 175 182
278 29 246 251 355 260 249 272 290 300 323 321 311 323 334 358 13 5 353 347 344 345 344 352 359 5 23 57 80 110 138 151 160 162 159 155 153 158 163 161 169 174 181 186
171 237 270 295 341 359 280 289 342 309 321 341 342 346 352 14 9 353 342 340 339 344 349 359 7 15 50 54 57 66 80 121 148 152 150 148 149 153 152 150 153 161 176 177
172 216 253 278 322 321 300 285 347 330 314 336 358 326 301 343 350 350 353 359 3 9 18 14 6 23 55 51 43 29 15 31 93 134 148 157 161 157 150 150 152 151 163 174
213 233 261 288 310 345 177 283 318 309 302 302 276 275 299 332 352 358 2 6 14 27 25 9 9 34 47 37 12 352 12 31 60 101 141 152 149 148 146 141 133 137 154 180
192 218 257 339 63 166 259 310 306 304 306 297 304 327 343 357 1 3 7 11 17 25 17 8 17 39 37 16 356 10 30 37 46 76 110 123 128 132 141 141 140 146 154 168
202 221 276 208 215 272 298 300 307 312 311 303 313 324 338 351 360 7 6 6 13 24 15 11 15 33 30 355 360 28 37 35 36 54 80 111 135 141 142 145 153 165 171 189
249 265 279 288 313 337 341 315 317 320 321 324 315 322 338 349 356 0 2 4 11 21 16 6 6 12 6 352 7 38 42 28 36 71 84 98 120 141 157 170 175 182 189 200
251 280 315 303 303 317 332 344 350 353 355 346 333 331 337 342 341 346 350 356 4 11 4 352 359 2 358 359 15 34 33 23 30 50 96 96 85 154 189 207 204 198 201 201
243 242 239 272 292 311 326 329 331 345 349 354 350 320 341 332 334 347 350 352 356 359 357 352 358 357 354 354 12 35 22 13 21 48 70 81 80 36 17 355 284 269 247 243
245 265 251 278 307 315 301 313 328 333 326 331 344 4 5 351 349 357 354 353 346 342 344 348 355 351 347 349 1 20 2 338 346 3 85 107 114 120 14 357 1 353 308 275
265 57 311 297 300 324 337 343 1 7 1 358 7 20 26 17 5 360 347 339 339 348 351 349 352 340 335 343 352 357 351 340 346 327 207 178 183 177 157 335 339 339 331 325
312 246 238 286 346 358 2 11 13 3 5 8 18 21 19 5 345 335 340 346 355 0 352 348 344 331 334 340 345 340 338 328 318 291 238 159 130 103 81 10 303 311 327 328
323 5 42 356 317 327 343 347 337 326 337 348 358 357 352 344 341 348 352 356 357 343 335 333 326 326 332 336 335 336 328 326 332 345 47 62 73 121 262 271 278 279 287 293
161 289 289 304 302 299 297 296 289 298 319 322 323 343 4 12 8 358 348 343 336 326 324 322 318 325 332 329 322 319 319 319 331 349 11 335 297 256 247 248 260 272 277 280
215 228 231 241 257 272 295 313 323 322 306 301 335 13 21 5 338 333 337 342 346 343 334 324 321 325 328 327 315 303 304 300 294 283 286 282 278 270 260 261 265 273 285 290
25 58 13 332 302 263 281 300 307 314 320 344 12 340 317 315 320 329 341 349 347 336 329 324 331 337 334 330 331 322 311 300 300 292 282 281 296 289 272 266 268 273 281 287
47 37 28 13 11 4 326 326 334 341 339 356 21 1 344 331 332 336 341 335 317 298 306 322 326 327 324 319 323 322 313 298 297 298 292 277 275 275 272 271 268 269 273 278
19 16 14 6 358 353 344 344 1 341 344 7 23 308 311 323 331 337 339 325 324 322 319 325 331 323 316 313 315 337 322 302 293 288 285 279 273 273 272 270 270 271 272 273
346 11 350 350 2 354 354 3 14 10 4 358 349 342 339 334 334 329 310 300 314 330 336 325 321 321 327 327 345 335 307 293 285 281 275 271 267 267 269 269 268 272 273 270
354 12 350 351 353 348 357 5 5 5 346 331 330 327 318 313 318 316 312 321 323 329 335 326 326 328 332 343 342 321 301 289 281 278 275 271 268 266 266 269 269 269 270 269
36 28 17 19 50 40 4 342 345 343 329 320 318 316 314 316 315 299 292 317 330 332 335 332 336 335 339 350 334 318 308 299 288 280 275 272 272 272 272 272 271 271 268 267
45 39 48 51 36 347 325 335 344 343 342 334 327 325 315 295 288 303 309 316 324 330 329 331 334 336 342 337 328 317 310 300 290 286 278 276 274 272 271 269 266 266 266 266
28 24 359 339 323 319 328 334 332 328 330 326 324 322 315 307 302 306 312 317 319 326 328 322 324 327 326 317 311 306 301 302 306 305 296 287 281 277 275 271 268 267 265 264
25 20 11 357 346 335 328 317 309 311 310 302 305 311 315 316 316 316 316 318 317 316 313 314 315 312 310 307 304 301 298 296 293 292 290 285 283 281 280 276 274 272 271 269
Height
1458 1456 1457 1457 1456 1456 1456 1455 1454 1447 1445 1442 1443 1442 1440 1439 1437 1436 1436 1436 1436 1436 1436 1436 1437 1438 1439 1440 1441 1443 1445 1447 1449 1451 1453 1456 1457 1460 1462 1463 1465 1466 1467 1468
1459 1456 1456 1455 1453 1453 1453 1454 1452 1447 1445 1444 1444 1442 1441 1439 1438 1437 1436 1436 1436 1436 1436 1436 1436 1436 1437 1438 1439 1441 1442 1444 1446 1448 1450 1452 1454 1456 1458 1460 1461 1462 1463 1464
1458 1457 1455 1455 1452 1451 1452 1451 1451 1448 1447 1446 1444 1442 1441 1439 1438 1437 1437 1436 1436 1435 1435 1435 1435 1435 1436 1436 1437 1439 1440 1441 1443 1445 1446 1448 1450 1452 1454 1456 1457 1458 1459 1461
1463 1461 1460 1452 1451 1449 1449 1449 1450 1448 1447 1446 1444 1442 1441 1439 1438 1437 1437 1436 1435 1435 1435 1434 1434 1434 1435 1435 1436 1436 1437 1439 1440 1442 1443 1445 1447 1449 1450 1452 1453 1454 1456 1457
1465 1464 1456 1452 1452 1453 1452 1450 1450 1449 1447 1445 1443 1441 1439 1439 1438 1438 1437 1436 1435 1435 1434 1433 1433 1433 1433 1434 1434 1435 1436 1436 1437 1439 1440 1442 1443 1445 1446 1448 1449 1451 1452 1453
1463 1461 1455 1453 1454 1452 1453 1450 1449 1448 1447 1446 1444 1443 1441 1439 1438 1437 1436 1435 1434 1434 1433 1433 1432 1432 1432 1433 1433 1433 1434 1434 1435 1436 1437 1439 1440 1442 1443 1444 1446 1447 1449 1450
1463 1461 1457 1456 1453 1451 1454 1450 1449 1447 1446 1446 1445 1444 1442 1439 1438 1437 1436 1435 1434 1433 1432 1432 1432 1431 1431 1431 1432 1432 1432 1433 1433 1434 1435 1436 1438 1439 1440 1441 1443 1444 1445 1447
1465 1462 1459 1455 1453 1455 1453 1450 1448 1446 1445 1444 1443 1441 1440 1439 1437 1436 1435 1434 1433 1432 1432 1432 1431 1431 1430 1430 1430 1430 1431 1431 1432 1432 1433 1434 1435 1436 1437 1438 1439 1441 1442 1443
1461 1459 1455 1453 1452 1451 1450 1449 1447 1445 1444 1443 1441 1440 1439 1438 1437 1436 1435 1434 1433 1432 1432 1432 1431 1431 1430 1430 1430 1429 1429 1430 1430 1431 1431 1432 1433 1433 1434 1435 1436 1437 1439 1440
1460 1455 1453 1452 1450 1449 1448 1447 1446 1445 1443 1442 1440 1439 1438 1437 1436 1435 1434 1434 1433 1432 1431 1431 1431 1430 1430 1429 1429 1428 1428 1428 1428 1429 1429 1430 1431 1432 1432 1433 1434 1435 1436 1437
1457 1454 1451 1449 1448 1448 1446 1445 1444 1443 1442 1441 1439 1438 1438 1437 1436 1435 1434 1434 1433 1432 1431 1431 1430 1429 1429 1428 1428 1427 1427 1427 1427 1427 1428 1428 1429 1430 1430 1431 1432 1433 1434 1435
1453 1450 1451 1448 1446 1446 1445 1444 1443 1441 1440 1439 1439 1437 1437 1436 1435 1435 1434 1433 1432 1431 1431 1430 1429 1429 1428 1428 1427 1427 1426 1426 1426 1426 1426 1426 1427 1428 1428 1430 1430 1431 1432 1433
1449 1447 1447 1446 1445 1445 1443 1442 1441 1440 1439 1438 1437 1437 1436 1435 1434 1434 1433 1432 1431 1430 1430 1429 1428 1428 1428 1427 1426 1426 1425 1425 1425 1425 1425 1425 1425 1425 1425 1427 1428 1428 1429 1430
1447 1446 1445 1444 1443 1443 1442 1441 1440 1439 1438 1437 1436 1435 1434 1434 1433 1433 1432 1431 1431 1430 1429 1428 1427 1427 1426 1426 1425 1425 1424 1424 1424 1424 1423 1423 1423 1424 1424 1424 1424 1425 1426 1427
1445 1444 1443 1442 1442 1441 1440 1439 1438 1437 1437 1436 1435 1434 1433 1433 1432 1432 1431 1430 1430 1429 1428 1427 1426 1426 1425 1424 1424 1423 1423 1422 1422 1422 1422 1422 1422 1422 1422 1422 1422 1423 1423 1424
1443 1442 1441 1441 1440 1439 1439 1438 1437 1436 1436 1435 1434 1433 1432 1432 1431 1431 1430 1430 1428 1427 1427 1426 1425 1424 1423 1423 1422 1421 1421 1421 1421 1420 1420 1420 1420 1420 1420 1420 1421 1421 1421 1421
1441 1440 1439 1439 1438 1438 1437 1437 1436 1435 1435 1434 1433 1432 1432 1431 1430 1430 1429 1429 1428 1427 1426 1425 1424 1423 1422 1421 1420 1420 1419 1419 1419 1419 1419 1419 1419 1419 1419 1419 1419 1419 1419 1419
1439 1439 1438 1438 1437 1436 1436 1436 1435 1434 1434 1433 1432 1432 1431 1430 1429 1429 1428 1427 1426 1425 1424 1423 1422 1421 1420 1420 1419 1418 1418 1417 1417 1417 1417 1417 1417 1417 1417 1417 1417 1417 1416 1417
1438 1437 1437 1436 1436 1435 1435 1434 1434 1433 1433 1432 1432 1431 1430 1430 1429 1428 1427 1426 1425 1424 1423 1422 1421 1420 1419 1418 1418 1417 1416 1416 1415 1415 1415 1415 1415 1415 1414 1414 1414 1414 1414 1414
1437 1437 1436 1435 1435 1434 1434 1433 1433 1432 1432 1432 1431 1430 1429 1429 1428 1427 1426 1425 1424 1423 1422 1421 1420 1419 1418 1417 1416 1415 1415 1414 1414 1413 1413 1413 1412 1412 1412 1412 1411 1411 1411 1411
1436 1436 1435 1434 1434 1434 1433 1433 1432 1432 1431 1431 1430 1429 1429 1428 1427 1426 1425 1424 1423 1422 1421 1420 1419 1418 1416 1416 1415 1414 1413 1412 1412 1411 1411 1410 1410 1409 1409 1409 1408 1408 1408 1408
1436 1435 1434 1434 1433 1433 1433 1432 1432 1431 1430 1430 1429 1429 1428 1427 1426 1425 1424 1423 1422 1421 1420 1418 1417 1416 1415 1414 1413 1412 1411 1410 1410 1409 1408 1408 1407 1406 1406 1406 1405 1405 1405 1404
1435 1435 1434 1433 1433 1432 1432 1431 1431 1430 1429 1429 1428 1427 1427 1426 1425 1424 1423 1422 1421 1420 1418 1417 1416 1415 1414 1412 1411 1410 1409 1408 1407 1406 1405 1405 1404 1403 1403 1402 1402 1402 1401 1401
1434 1434 1433 1433 1432 1431 1431 1431 1430 1429 1429 1428 1427 1427 1426 1424 1423 1423 1422 1420 1419 1418 1416 1415 1414 1413 1411 1410 1408 1407 1406 1405 1404 1403 1402 1401 1400 1400 1399 1399 1398 1398 1397 1397
1434 1433 1432 1432 1431 1431 1430 1430 1429 1429 1428 1427 1426 1425 1424 1423 1422 1421 1420 1418 1417 1416 1414 1413 1412 1410 1408 1407 1405 1404 1403 1402 1401 1399 1398 1398 1397 1396 1395 1395 1394 1393 1393 1392
1433 1432 1432 1431 1431 1430 1429 1429 1428 1427 1426 1425 1424 1424 1422 1421 1420 1419 1417 1416 1415 1413 1412 1410 1409 1407 1406 1404 1403 1401 1400 1398 1397 1396 1395 1394 1393 1392 1391 1391 1390 1389 1388 1388
1432 1431 1431 1430 1430 1429 1428 1427 1427 1426 1425 1424 1422 1421 1420 1419 1418 1416 1415 1413 1412 1410 1409 1407 1406 1404 1403 1401 1399 1398 1397 1395 1394 1392 1391 1390 1389 1388 1387 1386 1386 1385 1384 1383